SCP
0 0 0 0 0 0 0 0 0 0 0 0 0 0 0 0 0 0 0 0 0 0 0 0 0 0 0 0 0 0 0 0 0 0 0 0 0 0 0 0 0 0 0 0
0 0 0 0 0 0 0 0 0 0 0 0 0 0 0 0 0 0 0 0 0 0 0 0 0 0 0 0 0 0 0 0 0 0 0 0 0 0 0 0 0 0 0 0
0 0 0 0 0 0 0 0 0 0 0 0 0 0 0 0 0 0 0 0 0 0 0 0 0 0 0 0 0 0 0 0 0 0 0 0 0 0 0 0 0 0 0 0
0 0 0 0 0 0 0 0 0 0 0 0 0 0 0 0 0 0 0 0 0 0 0 0 0 0 0 0 0 0 0 0 0 0 0 0 0 0 0 0 0 0 0 0
0 0 0 0 0 0 0 0 0 0 0 0 0 0 0 0 0 0 0 0 0 0 0 0 0 0 0 0 0 0 0 0 0 0 0 0 0 0 0 0 0 0 0 0
0 0 0 0 0 0 0 0 0 0 0 0 0 0 0 0 0 0 0 0 0 0 0 0 0 0 0 0 0 0 0 0 0 0 0 0 0 0 0 0 0 0 0 0
0 0 0 0 0 0 0 0 0 0 0 0 0 0 0 0 0 0 0 0 0 0 0 0 0 0 0 0 0 0 0 0 0 0 0 0 0 0 0 0 0 0 0 0
0 0 0 0 0 0 0 0 0 0 0 0 0 0 0 0 0 0 0 0 0 0 0 0 0 0 0 0 0 0 0 0 0 0 0 0 0 0 0 0 0 0 0 0
0 0 0 0 0 0 0 0 0 0 0 0 0 0 0 0 0 0 0 0 0 0 0 0 0 0 0 0 0 0 0 0 0 0 0 0 0 0 0 0 0 0 0 0
0 0 0 0 0 0 0 0 0 0 0 0 0 0 0 0 0 0 0 0 0 0 0 0 0 0 0 0 0 0 0 0 0 0 0 0 0 0 0 0 0 0 0 0
0 0 0 0 0 0 0 0 0 0 0 0 0 0 0 0 0 0 0 0 0 0 0 0 0 0 0 0 0 0 0 0 0 0 0 0 0 0 0 0 0 0 0 0
0 0 0 0 0 0 0 0 0 0 0 0 0 0 0 0 0 0 0 0 0 0 0 0 0 0 0 0 0 0 0 0 0 0 0 0 0 0 0 0 0 0 0 0
0 0 0 0 0 0 0 0 0 0 0 0 0 0 0 0 0 0 0 0 0 0 0 0 0 0 0 0 0 0 0 0 0 0 0 0 0 0 0 0 0 0 0 0
0 0 0 0 0 0 0 0 0 0 0 0 0 0 0 0 0 0 0 0 0 0 0 0 0 0 0 0 0 0 0 0 0 0 0 0 0 0 0 0 0 0 0 0
0 0 0 0 0 0 0 0 0 0 0 0 0 0 0 0 0 0 0 0 0 0 0 0 0 0 0 0 0 0 0 0 0 0 0 0 0 0 0 0 0 0 0 0
0 0 0 0 0 0 0 0 0 0 0 0 0 0 0 0 0 0 0 0 0 0 0 0 0 0 0 0 0 0 0 0 0 0 0 0 0 0 0 0 0 0 0 0
0 0 0 0 0 0 0 0 0 0 0 0 0 0 0 0 0 0 0 0 0 0 0 0 0 0 0 0 0 0 0 0 0 0 0 0 0 0 0 0 0 0 0 0
0 0 0 0 0 0 0 0 0 0 0 0 0 0 0 0 0 0 0 0 0 0 0 0 0 0 0 0 0 0 0 0 0 0 0 0 0 0 0 0 0 0 0 0
0 0 0 0 0 0 0 0 0 0 0 0 0 0 0 0 0 0 0 0 0 0 0 0 0 0 0 0 0 0 0 0 0 0 0 0 0 0 0 0 0 0 0 0
0 0 0 0 0 0 0 0 0 0 0 0 0 0 0 0 0 0 0 0 0 0 0 0 0 0 0 0 0 0 0 0 0 0 0 0 0 0 0 0 0 0 0 0
0 0 0 0 0 0 0 0 0 0 0 0 0 0 0 0 0 0 0 0 0 0 0 0 0 0 0 0 0 0 0 0 0 0 0 0 0 0 0 0 0 0 0 0
0 0 0 0 0 0 0 0 0 0 0 0 0 0 0 0 0 0 0 0 0 0 0 0 0 0 0 0 0 0 0 0 0 0 0 0 0 0 0 0 0 0 0 0
0 0 0 0 0 0 0 0 0 0 0 0 0 0 0 0 0 0 0 0 0 0 0 0 0 0 0 0 0 0 0 0 0 0 0 0 0 0 0 0 0 0 0 0
0 0 0 0 0 0 0 0 0 0 0 0 0 0 0 0 0 0 0 0 0 0 0 0 0 0 0 0 0 0 0 0 0 0 0 0 0 0 0 0 0 0 0 0
0 0 0 0 0 0 0 0 0 0 0 0 0 0 0 0 0 0 0 0 0 0 0 0 0 0 0 0 0 0 0 0 0 0 0 0 0 0 0 0 0 0 0 0
0 0 0 0 0 0 0 0 0 0 0 0 0 0 0 0 0 0 0 0 0 0 0 0 0 0 0 0 0 0 0 0 0 0 0 0 0 0 0 0 0 0 0 0
0 0 0 0 0 0 0 0 0 0 0 0 0 0 0 0 0 0 0 0 0 0 0 0 0 0 0 0 0 0 0 0 0 0 0 0 0 0 0 0 0 0 0 0
Wind_Speed
10 9 9 10 10 10 11 12 11 10 9 7 5 5 3 3 3 4 6 6 7 7 6 6 6 7 7 7 6 6 6 6 5 5 5 4 4 4 5 5 4 4 4 4
10 9 10 11 11 11 11 11 12 12 10 5 4 4 4 4 4 5 5 5 6 7 7 6 6 7 7 7 7 6 6 5 5 5 5 5 5 5 5 4 4 4 4 4
9 6 9 10 7 8 9 8 9 9 6 4 4 4 5 4 5 5 4 4 5 6 6 5 6 6 7 7 7 6 6 5 5 5 5 4 4 4 4 4 4 4 4 4
8 7 10 1 1 4 7 7 6 6 5 4 4 3 2 3 4 3 3 3 4 4 5 5 5 6 6 6 7 6 6 6 6 5 5 4 4 4 4 3 3 3 4 4
7 9 9 3 1 3 6 5 3 5 4 3 2 4 4 2 2 2 2 2 3 4 4 4 5 6 6 6 6 6 6 6 5 5 5 5 4 4 3 4 4 4 4 5
8 10 9 1 2 3 6 6 0 3 3 3 4 5 2 2 2 2 2 2 3 4 4 5 5 5 6 6 6 6 6 5 5 5 5 5 4 4 3 4 4 5 4 5
10 10 5 2 2 2 6 2 4 3 3 3 4 3 2 2 3 3 3 4 4 4 4 4 5 6 6 5 5 5 5 5 5 4 4 4 4 3 4 4 4 4 4 5
8 9 4 3 1 2 4 4 3 3 2 3 2 0 1 2 4 4 4 5 5 5 4 4 5 5 5 5 4 4 4 4 4 4 4 4 4 3 4 4 4 5 5 5
4 3 3 2 2 3 3 4 4 3 3 3 3 3 2 3 4 5 5 5 5 5 5 4 5 5 5 4 4 4 5 5 4 5 4 4 4 4 4 4 4 4 4 4
5 3 4 3 3 4 4 5 5 4 4 4 4 4 3 3 4 4 5 5 5 5 5 5 5 5 4 4 4 5 5 4 4 4 5 4 4 4 3 3 3 4 4 3
7 5 5 5 6 6 6 5 4 3 4 4 4 4 4 3 4 4 4 4 5 5 5 5 4 4 3 3 4 4 4 4 4 4 4 4 5 3 4 3 2 3 3 3
6 5 6 7 7 8 6 5 4 3 3 3 4 3 3 3 4 4 4 4 5 5 4 4 4 4 4 4 5 5 4 4 4 4 3 4 4 4 2 3 1 3 3 4
7 8 8 8 8 7 6 5 4 3 2 2 3 3 3 3 3 4 4 5 4 4 4 4 4 4 4 4 5 5 4 3 3 3 3 4 4 4 4 4 6 6 6 5
6 6 7 6 6 5 3 2 1 1 1 1 2 3 3 3 3 4 4 4 4 4 4 4 4 4 4 5 5 5 5 4 4 4 4 4 4 5 5 5 5 5 7 8
6 5 5 5 5 3 2 1 0 1 1 1 1 2 2 3 3 3 3 4 4 4 4 4 4 4 4 5 5 5 5 4 4 4 4 4 4 5 5 5 5 4 3 5
6 5 4 4 3 2 1 1 0 0 1 1 1 2 2 2 1 2 2 3 4 4 4 4 4 4 4 5 5 5 5 4 4 4 4 4 4 4 4 4 5 4 4 3
4 4 3 3 3 2 2 1 1 1 1 1 1 1 1 2 1 1 1 2 3 3 3 4 4 4 5 5 6 5 5 5 7 6 5 4 4 4 4 4 4 4 4 2
4 3 3 3 3 3 3 2 2 2 1 1 2 2 2 2 2 2 2 3 3 3 3 4 3 4 5 6 5 5 5 4 5 5 4 4 4 4 4 4 4 5 4 3
4 3 3 2 3 3 3 3 3 2 2 1 1 2 3 3 3 3 3 3 3 3 3 3 3 5 5 4 5 6 6 5 4 4 4 4 5 5 4 4 4 5 5 3
3 3 3 3 3 3 3 3 3 3 2 2 2 2 2 3 3 3 3 4 3 2 2 2 3 4 4 3 5 5 5 5 4 4 4 4 4 4 4 4 5 5 5 4
4 4 3 3 3 3 3 3 3 3 3 3 2 2 2 2 2 2 3 3 2 1 2 2 3 3 3 2 5 5 4 4 5 4 4 4 4 4 4 4 4 4 4 4
4 4 4 3 3 3 3 3 3 3 3 3 3 2 2 2 2 3 3 2 1 1 2 3 3 0 1 3 4 4 4 4 4 4 3 3 4 4 4 4 4 4 4 4
4 4 5 4 4 3 4 4 4 3 3 3 3 3 3 3 2 2 2 1 1 1 3 2 0 1 2 5 4 4 4 4 4 4 4 4 4 4 4 4 4 4 4 4
5 4 4 4 4 3 3 4 3 3 4 4 3 3 3 3 2 2 2 1 1 2 3 1 2 3 5 5 4 4 4 4 4 4 4 4 4 5 5 5 4 4 4 5
5 4 4 3 3 2 3 3 3 3 3 2 3 3 3 2 3 2 2 2 1 2 3 2 4 5 6 4 4 3 3 3 3 4 4 4 4 4 4 4 4 5 5 4
5 4 3 3 3 3 3 3 3 3 3 3 3 3 3 3 3 2 2 3 3 3 3 2 2 4 5 4 4 3 4 3 3 4 5 4 5 5 4 4 5 5 4 4
4 3 3 3 2 3 3 3 3 3 3 3 4 3 3 3 3 2 3 3 2 3 3 2 2 3 4 4 3 4 4 4 4 4 4 4 4 4 4 5 4 4 4 4
Wind_Direction
269 275 271 263 260 249 248 259 268 276 276 279 268 264 260 233 207 191 180 179 180 180 175 173 174 175 173 169 170 172 178 183 181 181 185 192 200 198 199 205 209 210 214 219
261 258 260 261 258 252 249 255 261 267 271 282 278 254 245 232 213 204 197 192 188 185 180 179 178 177 171 168 166 170 179 181 177 182 188 194 200 198 201 204 210 211 213 215
269 266 263 254 254 250 242 250 263 269 281 286 259 245 240 221 208 212 206 201 193 188 184 181 178 177 175 169 167 170 177 181 180 185 189 195 199 197 202 203 207 218 223 222
272 269 256 298 353 272 263 261 265 274 288 289 267 252 214 203 204 213 208 202 189 182 179 175 170 172 173 170 170 172 175 180 180 186 188 194 201 203 206 207 210 219 226 227
260 263 262 228 253 277 269 263 277 276 280 264 241 217 176 149 195 204 190 190 180 175 168 162 165 165 166 170 174 178 178 181 183 188 188 191 197 201 202 208 214 221 222 222
251 261 264 304 30 317 270 247 3 284 272 253 225 237 152 133 192 176 166 170 160 156 154 157 157 158 164 169 174 181 182 181 179 187 191 196 198 204 207 214 219 225 220 221
251 256 262 359 12 252 253 347 12 313 279 245 241 312 43 162 180 172 168 161 152 149 148 154 156 159 167 172 178 179 178 180 178 184 193 193 191 198 211 220 222 232 229 226
244 251 255 46 164 273 335 344 320 312 295 252 245 247 152 174 173 172 168 161 157 152 148 153 160 165 172 178 176 180 181 187 189 192 199 183 193 205 216 228 223 224 225 231
271 288 6 4 311 323 319 307 310 304 297 254 234 225 206 179 174 175 171 165 165 161 155 160 169 176 177 177 181 186 191 194 199 201 203 197 206 209 214 223 240 233 227 230
265 274 315 323 327 321 308 306 308 297 278 251 240 230 213 188 173 171 170 170 171 169 166 168 175 179 181 183 186 187 190 196 201 207 209 202 221 223 228 229 242 249 249 246
259 287 301 297 308 309 304 299 297 284 266 252 236 222 207 195 186 180 178 180 180 181 175 172 175 176 182 186 188 193 198 202 209 217 219 216 222 233 240 246 271 273 274 269
280 304 297 302 306 301 290 286 285 273 255 241 234 217 202 194 189 184 179 177 181 183 183 182 184 185 188 192 197 203 208 210 216 217 216 229 223 214 209 249 191 228 271 291
288 304 298 299 305 299 284 278 268 263 254 227 215 199 188 187 183 181 179 180 184 187 188 189 196 199 201 202 207 213 222 226 236 232 227 233 232 233 229 218 222 227 226 236
298 299 293 300 310 309 303 299 282 253 217 201 196 183 173 180 179 178 183 184 189 194 199 200 205 207 209 208 209 218 229 223 235 238 237 236 234 237 239 239 226 220 210 214
311 303 300 310 313 318 331 331 175 158 155 159 175 177 173 181 181 179 177 182 192 201 209 214 214 213 208 206 207 218 231 234 236 247 246 242 240 242 245 246 248 249 235 191
306 312 313 317 323 336 353 1 7 198 205 201 193 182 170 166 157 158 172 185 198 211 219 222 222 223 215 213 214 217 221 222 235 244 244 242 238 238 239 242 245 245 247 240
314 320 326 327 331 332 327 334 329 293 238 206 208 196 182 172 173 186 205 212 216 220 225 228 228 223 217 216 223 229 225 205 208 231 238 240 245 247 243 244 247 250 251 245
326 318 316 320 326 331 326 316 306 290 267 231 220 211 209 211 217 224 229 223 223 231 234 237 240 235 223 218 224 237 238 231 221 230 234 235 239 242 243 244 248 253 252 206
331 333 348 1 351 346 337 327 314 304 297 286 250 230 230 229 226 227 227 231 229 228 235 243 239 235 231 225 230 229 234 232 230 231 235 226 235 239 239 245 250 251 254 251
349 353 1 6 3 353 339 330 321 319 319 306 279 255 241 233 229 228 228 233 239 259 256 248 233 232 232 226 242 237 235 236 235 233 234 236 240 244 245 248 253 256 257 256
351 349 350 352 348 346 345 336 323 321 319 305 288 268 261 262 256 246 245 246 242 251 249 223 229 235 240 242 238 242 239 238 235 231 232 237 240 244 249 253 255 257 259 259
341 338 334 335 341 346 346 336 330 328 323 309 300 290 283 276 263 253 247 263 263 150 243 234 234 216 294 258 239 242 240 243 244 238 234 242 245 245 246 253 260 263 259 256
333 334 332 333 338 344 346 341 339 331 318 309 305 302 295 295 293 279 273 292 261 238 262 255 57 113 246 247 243 240 235 236 242 244 241 241 244 247 250 252 257 262 264 263
323 323 323 326 328 336 341 337 331 323 315 307 305 303 295 288 291 290 296 244 202 219 256 144 156 210 244 247 244 245 244 238 237 241 245 242 242 245 247 249 254 261 265 268
316 312 312 318 316 318 315 305 303 300 296 303 308 308 299 297 299 303 300 288 252 243 261 190 190 214 237 248 245 249 255 259 260 259 252 252 252 252 253 257 260 260 262 261
313 305 310 304 305 305 306 303 302 308 313 316 312 309 310 311 303 291 279 267 254 257 267 255 220 230 251 257 257 260 264 252 241 250 257 258 256 255 256 261 265 266 267 265
305 309 298 299 311 313 311 305 304 310 315 317 314 312 311 310 302 298 292 282 274 272 275 269 263 263 266 261 256 256 257 258 258 257 260 263 267 265 257 252 256 258 257 254